Regional Weather Roundup
Issued by NWS Albany, NY

Home | Current Version | Previous Version | Graphics & Text | Print | Product List | Glossary On
Versions: 1 2 3 4 5 6 7 8 9 10 11 12 13 14 15 16 17 18 19 20 21 22 23 24 25 26 27 28 29 30 31 32 33 34 35 36 37 38 39 40 41 42 43 44 45 46 47 48 49 50
000
ASUS41 KALY 221010
RWRALY

NEW YORK STATE HOURLY WEATHER ROUNDUP
NATIONAL WEATHER SERVICE ALBANY NY
600 AM EDT THU JUN 22 2017

NOTE: "FAIR" INDICATES FEW OR NO CLOUDS BELOW 12,000 FEET WITH NO
SIGNIFICANT WEATHER AND/OR NO OBSTRUCTIONS TO VISIBILITY.

NYZ032-033-038>043-046>054-057>066-NYZ062>081-082-084-221100-
EAST


CITY           SKY/WX    TMP DP  RH WIND       PRES   REMARKS
ALBANY         CLEAR     56  51  84 CALM      30.01R
GLENS FALLS    CLEAR     52  50  93 CALM      29.99R
POUGHKEEPSIE   CLEAR     55  53  93 CALM      30.00R
NEWBURGH       CLEAR     57  55  94 CALM      30.03R
MONTGOMERY     CLEAR     53  52  96 SW3       30.02R
WHITE PLAINS   CLEAR     63  55  77 NW6       30.00R
ISLIP          PTCLDY    62  58  86 N5        30.00R
NEW YORK CITY  MOCLDY    68  57  68 E3        29.99R
CENTRAL PARK   CLEAR     68  57  68 NE5       30.02R
$$

NYZ005>009-017-018-044>046-055-056-221100-
CENTRAL


CITY           SKY/WX    TMP DP  RH WIND       PRES   REMARKS
FULTON         CLEAR     54  52  93 S3        29.99S
SYRACUSE       PTCLDY    55  53  93 CALM      29.99S
ROME           CLEAR     50  49  96 SE3       30.02S
ELMIRA         NOT AVBL
BINGHAMTON     NOT AVBL
MONTICELLO     CLEAR     52  50  93 CALM      30.05S
$$

NYZ026>034-041>043-087-221100-
NORTH


CITY           SKY/WX    TMP DP  RH WIND       PRES   REMARKS
WATERTOWN      CLEAR     56  55  97 S3        29.98S
FORT DRUM      NOT AVBL
OGDENSBURG     FAIR      56  56  97 CALM      29.96R
MASSENA        CLEAR     56  56 100 SW3       29.95S
SARANAC LAKE   CLEAR     47  47 100 CALM      29.98S FOG
PLATTSBURGH    CLEAR     59  54  83 CALM      29.93R
$$

NYZ001>004-010>016-019>021-085-221100-
WEST


CITY           SKY/WX    TMP DP  RH WIND       PRES   REMARKS
NIAGARA FALLS  CLEAR     59  54  83 CALM      29.99S
BUFFALO        PTCLDY    57  52  83 S5        29.99F
DUNKIRK        CLEAR     51  51 100 S3        29.99F
JAMESTOWN      CLEAR     48  45  87 S6        30.03S
WELLSVILLE     CLEAR     48  46  93 CALM      30.06S FOG
ROCHESTER      PTCLDY    56  53  90 SW7       30.00S
PENN YAN       CLEAR     57  52  83 SW8       30.02S
$$

             KEY
       WCI = WIND CHILL INDEX
       VSB = VISIBILITY
       HX  = HEAT INDEX
$$



USA.gov is the U.S. government's official web portal to all federal, state and local government web resources and services.